Regional Weather Roundup
Issued by NWS Charleston, SC

Current Version | Previous Version | Text Only | Print | Product List | Glossary Off
Versions: 1 2 3 4 5 6 7 8 9 10 11 12 13 14 15 16 17 18 19 20 21 22 23 24 25 26 27 28 29 30 31 32 33 34 35 36 37 38 39 40 41 42 43 44 45 46 47 48 49 50

546
ASUS42 KCHS 191712
RWRCHS

REGIONAL WEATHER ROUNDUP
NATIONAL WEATHER SERVICE CHARLESTON SC
1200 PM EST THU JAN 19 2017

NOTE: "FAIR" INDICATES FEW OR NO CLOUDS BELOW 12,000 FEET WITH NO
SIGNIFICANT WEATHER AND/OR OBSTRUCTIONS TO VISIBILITY.

NOT ALL STATIONS ARE QUALITY CONTROLLED. USE DATA WITH CAUTION...
ESPECIALLY DEWPOINT OBSERVATIONS.

SCZ027-030-031-034>040-042>050-191800-
...SOUTHEAST SOUTH CAROLINA...

CITY           SKY/WX    TMP DP  RH WIND       PRES   REMARKS
N CHARLESTON   CLOUDY    68  53  58 E7        30.04F
WATERFRONT PRK   N/A     63  56  78 E8        30.04F
MOUNT PLEASANT FAIR      66  55  68 E6        30.05F
JOHNS ISLAND   FAIR      68  55  64 NE7       30.05F
PINOPOLIS        N/A     55  52  88 CALM      29.97F
MONCKS CORNER  FAIR      64  50  59 NE5       30.06S
SUMMERVILLE    FAIR      66  54  63 E5        30.06F
BEAUFORT MCAS  MOSUNNY   64  57  78 E6        30.05S
BEAUFORT ARPT  FAIR      61  55  82 NE7       30.05S HAZE
HILTON HEAD IS NOT AVBL
WALTERBORO     CLOUDY    64  54  68 CALM      30.06F
ALLENDALE      FAIR      64  50  59 CALM      30.05F

...SOUTHERN MIDLANDS AND PEE DEE...

CITY           SKY/WX    TMP DP  RH WIND       PRES   REMARKS
GEORGETOWN     FAIR      63  50  63 E7        30.08F
KINGSTREE      FAIR      63  43  48 NE6       30.07F
ORANGEBURG     SUNNY     63  47  55 E6        30.07F
BARNWELL       FAIR      66  52  59 VRB3      30.06F
AIKEN          FAIR      64  46  52 E3        30.10F
MANNING        FAIR      63  45  51 E6        30.08S
COLUMBIA       PTSUNNY   66  41  40 E7        30.08S
SUMTER         SUNNY     64  41  42 E6        30.06F
FLORENCE       SUNNY     63  44  50 N6        30.09F
MYRTLE BEACH   SUNNY     61  46  59 E12       30.11F
N MYRTLE BEACH MOSUNNY   59  46  62 SE7       30.07F

$$

GAZ063-065-086>088-099>101-113>116-118-119-134>141-150-191800-
...SOUTHEAST GEORGIA...

CITY           SKY/WX    TMP DP  RH WIND       PRES   REMARKS
SAVANNAH ARPT  CLOUDY    73  49  42 NW5       30.05F
HUNTER AAF     CLOUDY    74  56  52 CALM      30.02F
FORT STEWART   SUNNY     73  54  51 CALM      30.03F
STATESBORO     SUNNY     73  53  48 CALM      30.05F
SYLVANIA       MOSUNNY  N/A N/A N/A NW3       30.06F
CLAXTON        FAIR      73  59  60 CALM      30.06F

...CSRA...CENTRAL AND FAR SOUTHEAST GEORGIA...

CITY           SKY/WX    TMP DP  RH WIND       PRES   REMARKS
THOMSON        SUNNY     69  47  45 CALM      30.10F
AUGUSTA-BUSH   SUNNY     67  44  43 NW3       30.06F
AUGUSTA-DANIEL SUNNY     65  41  41 E5        30.07F
SWAINSBORO     FAIR      73  54  49 MISG      30.06F
VIDALIA        SUNNY     73  61  64 CALM      30.06F
EASTMAN        FAIR      73  51  46 CALM      30.07F
HAZLEHURST     FAIR      74  62  68 CALM      30.05F
ALMA           SUNNY     73  61  65 W3        30.06F
WAYCROSS       SUNNY     75  65  72 CALM      30.06F
JESUP          FAIR      73  57  56 CALM      30.06F
BAXLEY         FAIR      72  63  73 CALM      30.06F
BRUNSWICK      MOSUNNY   73  61  64 CALM      30.06F
SAINT SIMONS   MOSUNNY   71  59  65 S5        30.05F

$$

SCZ027-028-034-036>038-045-046-048>050-GAZ119-141-191800-
...LAKE AND SUPPLEMENTAL COASTAL OBSERVATIONS...

STATION/POSITION TIME  TEMP    WIND        PRES    WAVE   SWELL
                       AIR SEA DIR/SP/G            HT/PER HT/PER/DIR
                 (UTC) (F)     (DEG/KT/KT) (MB)    (FT/S) (FT/S/D)
WINYAH BAY       1545   55      60/ 12     1019.0
LAKE MURRAY      1620   59      80/  4/  7 1018.6R
ACE BASIN NERRS  1545   58      10/  1     1018.0
FORT PULASKI     1642   66 57  300/  1/  1 1017.7F
SAPELO ISLAND    1600   69     230/  1     1018.0

$$

ANZ835-935-AMZ111-154-330-350-352-354-370-450-454-472-191800-
...C-MAN AND BUOY OBSERVATIONS...

STATION/POSITION TIME  TEMP    WIND        PRES    WAVE   SWELL
                       AIR SEA DIR/SP/G            HT/PER HT/PER/DIR
                 (UTC) (F)     (DEG/KT/KT) (MB)    (FT/S) (FT/S/D)
BUOY 41004       1550   69 71   60/ 14/ 16 1017.0    3/ 8   2/ 40/ 8
BUOY 41008       1650   61 60  240/  6/  6 1017.4F   1
FOLLY BEACH CMAN 1600   58      40/ 15/ 17 1018.7R
CAPERS NEARSHORE 1608   56 55   50/ 16/ 19 1017.9F
FRIPP NEARSHORE  1608   56 57   20/  6/  6 1017.6F


STATION/POSITION TIME  TEMP    WIND        PRES    WAVE   SWELL
                       AIR SEA DIR/SP/G            HT/PER HT/PER/DIR
                 (UTC) (F)     (DEG/KT/KT) (MB)    (FT/S) (FT/S/D)
5E ST. MARYS GA  1630      63                N/A     1
FRYING PAN BUOY  1650   62 71   40/ 10/ 14 1018.1F   4/ 9   3/ 80/ 9
BUOY 41025       1650   53 76  360/ 14/ 17 1018.1F   7/11   7/ 50/11
CAPE LOOKOUT NC  1600   52      40/ 12/ 14 1019.2F
BUOY 41002       1650   67 71  360/  8/ 10 1016.5F   7/ 8   7/ 10/ 8
BUOY 41010       NOT AVBL
ST AUGUSTINE FL  1700   63 63   90/  5/  5 1018.8F


$$




USA.gov is the U.S. government's official web portal to all federal, state and local government web resources and services.